Location: Bischweiler
(48.7659°N, 7.8583°E)
Time: 19:09:19
(UTC+00:00)

Daily predictions for brighter satellites

Satellite Brightness Start Highest point End
(mag) Time Altitude Azimuth Time Altitude Azimuth Time Altitude Azimuth
Cosmos 2074 Rocket 4.1 17:36:29 10° S 17:42:38 61° E 17:48:46 10° NNE
Cosmos 2154 Rocket 4.4 17:37:14 10° SSE 17:42:58 41° E 17:48:42 10° NNE
YAOGAN 1 2.8 17:40:06 10° SE 17:44:17 51° ENE 17:48:30 10° N
Helios 1A Rocket 3.7 17:40:58 10° SE 17:44:33 31° ENE 17:48:08 10° N
FALCON 9 DEB 3.9 17:41:55 10° W 17:44:57 39° N 17:47:59 10° ENE
APEX 3.0 17:43:06 10° NW 17:45:55 58° WSW 17:48:35 10° SSE
COSMO-SKYMED 1 2.6 17:45:07 10° NNE 17:49:29 88° E 17:53:51 10° SSW
GP-B 4.2 17:48:13 10° SE 17:51:43 23° ENE 17:55:14 10° NNE
Cosmos 2263 Rocket 3.2 17:49:06 10° NW 17:54:29 52° WSW 17:59:52 10° S
Cosmos 1437 4.1 17:51:54 10° NNW 17:54:39 40° W 17:57:23 10° SSW
Cosmos 1992 Rocket 4.4 17:50:16 10° S 17:55:06 40° ESE 17:59:58 10° NE
Meteor 1-18 Rocket 4.4 17:49:22 10° N 17:55:16 58° ENE 18:01:05 10° SSE
Cosmos 968 Rocket 3.5 17:50:09 10° NNW 17:55:28 87° ENE 18:00:44 10° SSE
SL-16 R/B 2.3 17:50:01 10° S 17:55:35 61° ESE 18:01:11 10° NE
ARGOS 3.3 17:52:08 10° SE 17:57:25 56° ENE 18:02:44 10° N
FALCON 9 DEB 4.0 17:54:30 10° WNW 17:57:30 37° N 18:00:29 10° ENE
Cosmos 1486 Rocket 4.0 17:53:54 10° NNW 17:59:13 83° ENE 18:04:32 10° SSE
USA 234 4.2 17:53:55 10° ENE 17:59:14 26° SE 18:04:31 10° S
Cosmos 1515 3.7 17:55:50 10° N 17:59:38 60° ENE 18:03:25 10° SSE
Okean 1 3.3 17:55:44 10° N 17:59:44 59° ENE 18:03:43 10° SSE
SeaSat 1 3.2 17:57:56 10° NE 18:02:22 32° ESE 18:06:45 10° S
Cosmos 1633 Rocket 3.0 17:58:39 10° S 18:03:04 74° E 18:07:31 10° NNE
Okean 1-7 4.0 17:59:24 10° NNE 18:03:07 26° ENE 18:06:47 10° SE
Cosmos 2184 Rocket 4.0 17:57:03 10° S 18:03:12 81° E 18:09:27 10° N
Cosmos 1707 Rocket 4.1 17:58:52 10° NNW 18:03:13 63° W 18:07:30 10° S
OBJECT-B 2.9 18:03:22 11° ENE 18:03:53 11° ENE 18:05:01 10° NE
CZ-2C R/B 3.1 18:02:26 10° NNE 18:07:34 39° E 18:12:33 10° SSE
CZ-4 R/B 1.4 18:04:50 10° S 18:08:42 79° WSW 18:12:38 10° NNW
H-2A R/B 2.2 18:03:18 10° SSE 18:08:45 88° WSW 18:14:15 10° NNW
SAR-Lupe-4 3.9 18:06:47 10° NNE 18:10:14 43° E 18:13:40 10° S
USA 305 3.7 18:06:52 10° W 18:10:59 44° N 18:14:50 11° ENE
Gbstr 26 Del rocket 3.5 18:09:20 10° W 18:13:41 67° N 18:18:27 13° ENE
Cosmos 2237 4.5 18:09:28 10° S 18:14:55 47° ESE 18:20:25 10° NE
Meteor 1-20 Rocket 4.3 18:09:58 10° SSW 18:15:26 83° WNW 18:20:58 10° N
Cosmos 1302 Rocket 4.5 18:10:46 10° SW 18:15:55 64° WNW 18:21:08 10° NNE
SL-4 R/B 1.9 18:12:41 10° WNW 18:16:13 55° N 18:18:38 18° E
USA 307 3.8 18:18:12 10° W 18:22:18 42° N 18:25:41 14° ENE
FALCON 9 DEB 3.0 18:20:32 10° WNW 18:23:59 88° NNE 18:26:13 20° ESE
ATLAS CENTAUR R/B 1.6 18:21:10 10° S 18:24:30 36° ESE 18:26:57 16° ENE
USA 186 2.6 18:25:07 20° NE 18:25:07 20° NE 18:26:38 10° NNE
USA 306 3.8 18:21:38 10° WNW 18:25:43 42° N 18:28:56 15° ENE
Cosmos 1354 Rocket 3.9 18:20:39 10° NNW 18:25:56 72° ENE 18:31:09 10° SSE
Cosmos 44 Rocket 4.1 18:22:13 10° NW 18:27:22 58° WSW 18:32:27 10° SSE
ERS-2 2.0 18:23:52 10° NNE 18:27:33 77° ESE 18:31:12 10° S
FALCON 9 DEB 3.9 18:25:07 10° WNW 18:28:05 36° N 18:29:48 20° ENE
Okean-O 3.2 18:24:10 10° S 18:28:33 63° WSW 18:32:58 10° NNW
Cosmos 1844 Rocket 2.6 18:24:04 10° NNW 18:29:40 72° ENE 18:35:13 10° SE
SAR-Lupe-1 3.9 18:26:04 10° NNE 18:29:41 78° ESE 18:33:16 10° S
CSL-04 Rocket 3.7 18:24:21 10° SSE 18:29:53 82° ENE 18:35:25 10° NNW
Cosmos 2084 Rocket 3.9 18:25:35 10° NW 18:29:53 65° SW 18:34:20 10° SSE
FALCON 9 DEB 4.0 18:27:02 10° WNW 18:30:02 36° N 18:31:45 20° ENE
CSL-04 Debris 4.2 18:25:48 10° SSE 18:31:14 88° ENE 18:36:45 10° NNW
USA 308 3.8 18:28:52 10° WNW 18:32:56 41° N 18:35:51 17° ENE
Cosmos 1666 3.3 18:30:58 10° SSE 18:34:17 32° E 18:37:39 10° NNE
Cosmos 1777 Rocket 4.4 18:29:32 10° NNW 18:34:33 42° ENE 18:37:59 19° ESE
Cosmos 1503 Rocket 4.0 18:30:56 10° NNW 18:36:10 84° WSW 18:41:19 10° SSE
HJ-1C 3.8 18:33:11 10° S 18:36:29 62° W 18:39:47 10° NNW
Cosmos 2341 Rocket 4.1 18:32:08 10° SSE 18:38:16 56° E 18:44:23 10° NNE
Meteor 1-5 Rocket 4.2 18:33:25 10° SSE 18:38:35 51° E 18:43:55 10° NNE
PSLV R/B 4.3 18:34:33 10° N 18:38:39 67° WNW 18:42:39 10° SSW
Cosmos 1844 3.7 18:35:41 10° NNW 18:41:29 75° ENE 18:46:58 11° SE
Okean 3 4.2 18:37:55 10° N 18:41:45 31° ENE 18:42:57 27° ESE
Cosmos 1470 Rocket 3.7 18:37:49 10° SSW 18:42:17 77° W 18:46:46 10° N
CZ-4B R/B 4.1 18:40:12 10° NNW 18:42:31 20° WNW 18:44:51 10° WSW
Cosmos 2360 Rocket 2.1 18:39:20 10° SSW 18:44:56 68° ESE 18:50:35 10° NNE
Ariane Rocket 3.4 18:42:04 19° SE 18:45:21 41° ENE 18:50:07 10° N
Cosmos 2278 Rocket 3.3 18:42:04 10° NNW 18:46:47 26° NE 18:48:36 22° ENE
Cosmos 1727 Rocket 4.5 18:44:09 10° N 18:49:52 37° ENE 18:52:57 23° ESE
Cosmos 1500 3.3 18:49:16 10° SSW 18:52:59 72° W 18:56:44 10° N
Meteor 2-4 Rocket 3.9 18:47:33 10° NNW 18:53:25 82° W 18:59:20 10° S
Cosmos 1703 Rocket 3.4 18:49:15 10° N 18:53:40 84° ENE 18:58:03 10° S
Cosmos 2333 Rocket 2.6 18:49:59 10° S 18:55:09 37° ESE 19:00:23 10° NE
Cosmos 1689 Rocket 3.7 18:53:21 10° N 18:56:01 35° WNW 18:58:41 10° SW
Cosmos 2218 Rocket 4.2 18:50:44 10° SSE 18:56:52 51° E 19:03:02 10° NNE
SL-08 RB Rocket 4.2 18:52:41 10° S 18:57:09 62° W 19:01:42 10° NNW
ERBS 3.9 18:57:54 10° W 19:00:51 29° NNW 19:02:19 20° NNE
Cosmos 1933 Rocket 3.8 18:58:52 10° SSW 19:03:12 70° WNW 19:07:36 10° N
Cosmos 1943 Rocket 4.3 19:03:24 10° N 19:05:20 12° NNE 19:06:52 11° NE
Cosmos 2242 Rocket 4.2 19:07:15 10° NNW 19:11:42 58° W 19:16:04 10° S
Resurs 01 Rocket 2.6 19:12:41 30° NE 19:12:41 30° NE 19:15:55 10° N
Cosmos 864 Rocket 4.4 19:07:34 10° S 19:13:37 62° E 19:19:44 10° NNE
Cosmos 2322 Rocket 3.2 19:09:41 10° SW 19:15:05 48° NW 19:20:33 10° NNE
Lacrosse 4 Rocket 3.1 19:12:51 10° S 19:14:29 21° S 19:14:29 21° S
Abrixas rocket 3.5 19:14:43 10° W 19:16:07 29° W 19:16:07 29° W
SME Rocket 4.1 19:09:23 10° NNE 19:17:50 68° ESE 19:23:14 10° S
Cosmos 1959 Rocket 4.3 19:12:59 10° S 19:19:01 71° E 19:25:08 10° NNE
FALCON 9 DEB 4.0 19:18:10 10° WNW 19:20:46 40° NNW 19:20:46 40° NNW
Cosmos 192 4.2 19:17:28 10° S 19:22:19 67° ESE 19:27:13 10° NNE
SJ-6B 3.0 19:22:30 31° S 19:24:23 72° WSW 19:28:27 10° NNW
COSMOS 2428 2.9 19:19:45 10° S 19:32:12 - NE 19:24:51 46° ESE
ASTEX 1 3.2 19:22:05 10° N 19:27:00 76° E 19:30:11 22° S
GP-B 4.4 19:24:38 10° SSW 19:28:48 40° W 19:33:01 10° NNW
MOS 1 4.2 19:25:33 23° SSE 19:29:13 89° WSW 19:34:56 10° NNW
Meteor 1-23 Rocket 4.1 19:23:42 10° N 19:29:15 63° ENE 19:30:27 50° SE
Cosmos 2219 Rocket 2.1 19:26:35 10° SSW 19:32:05 62° ESE 19:37:38 10° NNE
Meteor 1-11 Rocket 3.6 19:26:33 10° S 19:32:16 80° E 19:37:54 10° NNE
FALCON 9 DEB 4.5 19:30:36 10° WNW 19:32:42 34° NW 19:32:42 34° NW
OBJECT-B 1.9 19:36:26 42° NW 19:36:26 42° NW 19:38:53 10° NNW
Resurs 1-3 3.4 19:38:47 87° SE 19:38:50 88° ENE 19:43:16 10° NNW
SeaSat 1 3.5 19:35:17 10° NNE 19:40:00 46° NW 19:44:41 10° SW
SL-16 R/B 4.1 19:35:12 10° WSW 19:40:05 29° NW 19:45:01 10° NNE
SJ 16-02 1.9 19:36:10 10° NNW 19:39:34 46° NNE 19:39:34 46° NNE
Terra 4.2 19:42:57 10° NNE 19:42:57 10° NNE 19:43:06 10° NNE
USA 234 3.1 19:39:54 35° ENE 19:42:55 79° SE 19:49:29 10° SW
Cosmos 1066 Rocket 4.2 19:37:25 10° NNW 19:43:09 82° W 19:45:41 35° S
CZ-2C R/B 4.2 19:42:49 10° N 19:47:49 36° WNW 19:52:42 10° SW
Meteor 2-20 Rocket 4.3 19:42:42 10° N 19:48:48 64° ENE 19:49:08 63° E
Cosmos 2369 Rocket 4.3 19:48:03 10° N 19:50:37 13° NNE 19:50:42 13° NNE
USA 305 3.8 19:47:23 10° WNW 19:50:56 43° NNW 19:50:56 43° NNW
BREEZE-M DEB (TANK) 2.7 19:48:39 10° W 19:51:09 72° W 19:51:09 72° W
Cosmos 2322 3.7 19:46:24 10° SSW 19:52:07 79° WNW 19:57:53 10° NNE
SL-4 R/B 3.6 19:52:23 10° WNW 19:54:13 28° W 19:54:13 28° W
Cosmos 1898 Rocket 4.4 19:54:10 10° NNW 19:57:51 37° NNE 19:57:51 37° NNE
Gbstr 26 Del rocket 3.6 19:56:11 10° WNW 20:00:59 70° N 20:00:59 70° N
USA 307 4.1 19:58:43 10° WNW 20:01:49 39° NNW 20:01:49 39° NNW
ATLAS CENTAUR R/B 3.0 20:00:15 10° W 20:03:11 27° NW 20:03:11 27° NW
USA 306 4.2 20:02:05 10° WNW 20:05:03 38° NW 20:05:03 38° NW
USA 308 4.4 20:09:19 10° WNW 20:12:00 34° NW 20:12:00 34° NW
NOSS 3-3 (A) 4.4 20:10:10 10° NW 20:17:37 87° NE 20:18:42 70° SE
NOSS 3-3 (C) 4.4 20:10:16 10° NW 20:17:43 87° NE 20:18:47 71° SE
SPOT 3 Rocket 3.9 20:18:38 63° WNW 20:18:38 63° WNW 20:23:26 10° NNW
Cosmos 2360 Rocket 4.1 20:24:41 10° WSW 20:29:27 27° NW 20:34:14 10° NNE
Cosmos 2278 Rocket 2.6 20:25:46 10° NNW 20:30:28 59° WNW 20:30:28 59° WNW
Cosmos 2333 Rocket 3.3 20:33:58 10° SW 20:39:22 43° NW 20:44:51 10° NNE
Cosmos 1821 Rocket 4.3 20:41:55 61° NW 20:41:55 61° NW 20:47:17 10° N
Resurs 01 Rocket 3.8 20:50:14 23° NW 20:50:14 23° NW 20:52:24 10° NNW
Cosmos 1943 Rocket 3.9 20:45:35 10° NNW 20:48:24 26° N 20:48:24 26° N
COSMOS 2428 4.5 21:04:23 10° WSW 21:14:01 14° NNE 21:14:50 10° NNE
Cosmos 2219 Rocket 3.9 21:11:40 10° WSW 21:16:27 28° NW 21:21:18 10° NNE
SJ 16-02 4.4 21:15:49 10° NW 21:16:34 13° WNW 21:16:34 13° WNW
USA 234 4.1 21:27:15 44° WNW 21:27:15 44° WNW 21:32:04 10° W
USA 281 4.4 21:34:30 36° NNW 21:34:30 36° NNW 21:38:13 10° NNW
Cosmos 2369 Rocket 4.4 21:30:46 10° NNW 21:32:29 20° N 21:32:29 20° N
